This is the latest recevied weather packets stored in our database for station/object JQ1YUX-13. If no packets are shown the sender has not sent any weather packets the latest 10 day(s).
| Time | Temp. | Humidity | Pressure | Rain* | Wind** | Luminosity | Snow |
|---|---|---|---|---|---|---|---|
| 1777749527 | 17.22° C | 70% | 1011.5 hPa | 0 mm | - | - | - |
| 1777746485 | 17.22° C | 75% | 1011.3 hPa | 0 mm | - | - | - |
| 1777742885 | 17.22° C | 74% | 1011.2 hPa | 0 mm | - | - | - |
| 1777741086 | 17.22° C | 77% | 1011.1 hPa | 0 mm | - | - | - |
| 1777735685 | 17.78° C | 72% | 1011.2 hPa | 0 mm | - | - | - |
| 1777734785 | 18.33° C | 72% | 1011.3 hPa | 0 mm | - | - | - |
| 1777733886 | 18.89° C | 68% | 1011.3 hPa | 0 mm | - | - | - |
| 1777732085 | 18.89° C | 67% | 1011.1 hPa | 0 mm | - | - | - |
| 1777731185 | 18.89° C | 67% | 1011.2 hPa | 0 mm | - | - | - |
| 1777730285 | 18.89° C | 68% | 1011.3 hPa | 0 mm | - | - | - |
| 1777728486 | 20° C | 66% | 1011.2 hPa | 0 mm | - | - | - |
| 1777726684 | 20.56° C | 63% | 1011.1 hPa | 0 mm | - | - | - |
| 1777723085 | 21.67° C | 61% | 1010.1 hPa | 0 mm | - | - | - |
| 1777721286 | 21.67° C | 53% | 1009.7 hPa | 0 mm | - | - | - |
| 1777720384 | 22.22° C | 54% | 1009.5 hPa | 0 mm | - | - | - |
| 1777719484 | 22.22° C | 53% | 1009.2 hPa | 0 mm | - | - | - |
| 1777718585 | 22.78° C | 52% | 1009 hPa | 0 mm | - | - | - |
| 1777717685 | 22.78° C | 53% | 1008.8 hPa | 0 mm | - | - | - |
| 1777716786 | 23.33° C | 50% | 1008.7 hPa | 0 mm | - | - | - |
| 1777715886 | 23.89° C | 49% | 1008.6 hPa | 0 mm | - | - | - |
| 1777714086 | 23.89° C | 45% | 1008.1 hPa | 0 mm | - | - | - |
| 1777713184 | 23.89° C | 46% | 1007.9 hPa | 0 mm | - | - | - |
| 1777712285 | 24.44° C | 49% | 1007.7 hPa | 0 mm | - | - | - |
| 1777711385 | 24.44° C | 47% | 1007.6 hPa | 0 mm | - | - | - |
| 1777710486 | 25° C | 53% | 1007.6 hPa | 0 mm | - | - | - |
* Rain latest hour (hover to see other rain measurements)
** Current wind speed in m/s (hover to see current wind gust speed)